GW5281 Weather Reports


time (UTC)temp
C
wind
direction
speed
KPH
gust
KPH
rain 1hr
cm
rain 24hr
cm
rain mn
cm
humidity
%
barometer
mb
20260507161509 19 10 3.2 8.0 0.00 0.00 0.00 75 1003.7
20260507161008 18 9 0.0 8.0 0.00 0.00 0.00 80 1003.8
20260507160508 18 341 1.6 8.0 0.00 0.00 0.00 84 1003.8
20260507160006 17 313 1.6 4.8 0.00 0.00 0.00 87 1003.8
20260507155505 17 307 1.6 6.4 0.00 0.00 0.00 89 1003.9
20260507155002 16 307 3.2 6.4 0.00 0.00 0.00 90 1003.9
20260507154502 16 23 1.6 6.4 0.00 0.00 0.00 91 1003.9
20260507154103 15 21 3.2 8.0 0.00 0.00 0.00 92 1004.0
20260507153558 15 321 1.6 8.0 0.00 0.00 0.00 92 1004.0
20260507153106 14 321 1.6 8.0 0.00 0.00 0.00 92 1003.9
20260507152558 14 305 3.2 6.4 0.00 0.00 0.00 92 1004.0
20260507152053 13 304 1.6 4.8 0.00 0.00 0.00 92 1004.0
20260507151553 13 304 3.2 6.4 0.00 0.00 0.00 92 1004.1
20260507151051 13 304 1.6 3.2 0.00 0.00 0.00 92 1003.9
20260507150552 12 304 0.0 1.6 0.00 0.00 0.00 92 1003.9
20260507150049 11 304 0.0 3.2 0.00 0.00 0.00 91 1004.0
20260507145546 11 304 1.6 4.8 0.00 0.00 0.00 91 1003.9
20260507145046 10 304 3.2 6.4 0.00 0.00 0.00 90 1003.9
20260507144545 10 303 1.6 6.4 0.00 0.00 0.00 90 1003.9
20260507144044 10 300 3.2 4.8 0.00 0.00 0.00 89 1003.7
20260507143542 10 300 1.6 6.4 0.00 0.00 0.00 89 1003.8
20260507143042 10 298 0.0 3.2 0.00 0.00 0.00 89 1003.7
20260507142540 10 360 0.0 6.4 0.00 0.00 0.00 88 1003.7
20260507142039 10 360 0.0 6.4 0.00 0.00 0.00 88 1003.6
20260507141542 10 360 1.6 3.2 0.00 0.00 0.00 88 1003.6
20260507141037 9 360 0.0 3.2 0.00 0.00 0.00 88 1003.6
20260507140536 9 176 0.0 0.0 0.00 0.00 0.00 87 1003.6
20260507140036 9 176 0.0 1.6 0.00 0.00 0.00 87 1003.6
20260507135536 9 176 0.0 1.6 0.00 0.00 0.00 87 1003.5
20260507135036 9 176 0.0 0.0 0.00 0.00 0.00 87 1003.6
20260507134538 9 176 0.0 0.0 0.00 0.00 0.00 87 1003.5
20260507134035 9 176 0.0 0.0 0.00 0.00 0.00 86 1003.6
20260507133535 9 176 0.0 0.0 0.00 0.00 0.00 86 1003.5
20260507133048 9 176 0.0 0.0 0.00 0.00 0.00 86 1003.5
20260507132536 9 176 0.0 0.0 0.00 0.00 0.00 86 1003.4
20260507132032 9 176 0.0 1.6 0.00 0.00 0.00 86 1003.5
20260507131542 9 176 0.0 1.6 0.00 0.00 0.00 86 1003.5
20260507131035 9 163 0.0 0.0 0.00 0.00 0.00 86 1003.5
20260507130532 9 163 0.0 0.0 0.00 0.00 0.00 86 1003.5
20260507130040 9 163 0.0 0.0 0.00 0.00 0.00 86 1003.4
20260507125531 9 163 0.0 0.0 0.00 0.00 0.00 86 1003.3
20260507125031 9 163 0.0 0.0 0.00 0.00 0.00 86 1003.3
20260507124533 10 163 0.0 0.0 0.00 0.00 0.00 85 1003.3
20260507124030 10 163 0.0 0.0 0.00 0.00 0.00 85 1003.2
20260507123630 10 163 0.0 0.0 0.00 0.00 0.00 85 1003.2
20260507123032 10 163 0.0 0.0 0.00 0.00 0.00 85 1003.2
20260507122529 10 163 0.0 0.0 0.00 0.00 0.00 85 1003.2
20260507122032 10 163 0.0 0.0 0.00 0.00 0.00 85 1003.1
20260507121527 10 163 0.0 0.0 0.00 0.00 0.00 85 1003.1
20260507121027 10 163 0.0 0.0 0.00 0.00 0.00 85 1003.2
20260507120526 10 163 0.0 0.0 0.00 0.00 0.00 85 1003.1
20260507120028 10 163 0.0 0.0 0.00 0.00 0.00 85 1003.1
20260507115526 10 163 0.0 0.0 0.00 0.00 0.00 85 1003.2
20260507115025 10 163 0.0 0.0 0.00 0.00 0.00 84 1003.3
20260507114524 10 163 0.0 0.0 0.00 0.00 0.00 84 1003.2
20260507114024 10 163 0.0 0.0 0.00 0.00 0.00 84 1003.3
20260507113523 10 163 0.0 0.0 0.00 0.00 0.00 84 1003.3
20260507113023 10 163 0.0 0.0 0.00 0.00 0.00 84 1003.3
20260507112524 10 163 0.0 0.0 0.00 0.00 0.00 84 1003.4
20260507112021 10 163 0.0 0.0 0.00 0.00 0.00 84 1003.3
20260507111520 10 163 0.0 0.0 0.00 0.00 0.00 84 1003.4
20260507111019 10 163 0.0 0.0 0.00 0.00 0.00 84 1003.5
20260507110519 10 163 0.0 0.0 0.00 0.00 0.00 84 1003.4
20260507110018 11 163 0.0 0.0 0.00 0.00 0.00 84 1003.4
20260507105516 11 163 0.0 0.0 0.00 0.00 0.00 84 1003.6
20260507105017 11 163 0.0 0.0 0.00 0.00 0.00 84 1003.6
20260507104516 11 163 0.0 0.0 0.00 0.00 0.00 84 1003.6
20260507104015 11 163 0.0 0.0 0.00 0.00 0.00 83 1003.5
20260507103515 11 163 0.0 0.0 0.00 0.00 0.00 83 1003.7
20260507103016 11 163 0.0 0.0 0.00 0.00 0.00 82 1003.7
20260507102514 11 163 0.0 0.0 0.00 0.00 0.00 82 1003.7
20260507102014 11 163 0.0 0.0 0.00 0.00 0.00 82 1003.8
20260507101516 11 163 0.0 0.0 0.00 0.00 0.00 82 1003.8
20260507101015 11 163 0.0 0.0 0.00 0.00 0.00 82 1003.7
20260507100512 11 163 0.0 0.0 0.00 0.00 0.00 82 1003.6
20260507100011 11 159 0.0 0.0 0.00 0.00 0.00 81 1003.5
20260507095511 11 159 0.0 0.0 0.00 0.00 0.00 81 1003.6
20260507095011 11 159 0.0 0.0 0.00 0.00 0.00 81 1003.6
20260507094509 11 159 0.0 0.0 0.00 0.00 0.00 81 1003.7
20260507094008 11 159 0.0 0.0 0.00 0.00 0.00 81 1003.7
20260507093511 11 159 0.0 0.0 0.00 0.00 0.00 81 1003.9
20260507093008 11 159 0.0 0.0 0.00 0.00 0.00 81 1004.1
20260507092507 11 159 0.0 0.0 0.00 0.00 0.00 81 1003.8
20260507092007 11 159 0.0 0.0 0.00 0.00 0.00 81 1003.9
20260507091507 12 159 0.0 0.0 0.00 0.00 0.00 81 1003.9
20260507091005 12 159 0.0 0.0 0.00 0.00 0.00 81 1003.9
20260507090507 12 159 0.0 0.0 0.00 0.00 0.00 81 1004.0
20260507090010 12 159 0.0 0.0 0.00 0.00 0.00 81 1003.8
20260507085503 12 159 0.0 0.0 0.00 0.00 0.00 81 1003.9
20260507085002 12 159 0.0 0.0 0.00 0.00 0.00 81 1004.0
20260507084502 12 159 0.0 0.0 0.00 0.00 0.00 81 1004.1
20260507084001 12 159 0.0 0.0 0.00 0.00 0.00 81 1004.1
20260507083600 12 159 0.0 0.0 0.00 0.00 0.00 81 1004.2
20260507083100 12 159 0.0 0.0 0.00 0.00 0.00 81 1004.1
20260507082558 12 159 0.0 0.0 0.00 0.00 0.00 81 1004.2
20260507082059 12 159 0.0 0.0 0.00 0.00 0.00 81 1004.2
20260507081558 12 159 0.0 0.0 0.00 0.00 0.00 80 1004.2
20260507081057 12 159 0.0 0.0 0.00 0.00 0.00 80 1004.2
20260507080559 12 159 0.0 0.0 0.00 0.00 0.00 79 1004.3
20260507080118 12 159 0.0 0.0 0.00 0.00 0.00 79 1004.4
20260507075555 12 159 0.0 0.0 0.00 0.00 0.00 79 1004.3
20260507075055 12 159 0.0 0.0 0.00 0.00 0.00 79 1004.3
20260507074555 13 159 0.0 0.0 0.00 0.00 0.00 79 1004.4
20260507074053 13 159 0.0 0.0 0.00 0.00 0.00 79 1004.5
20260507073552 13 159 0.0 0.0 0.00 0.00 0.00 79 1004.7
20260507073104 13 159 0.0 3.2 0.00 0.00 0.00 79 1004.6
20260507072551 13 159 0.0 6.4 0.00 0.00 0.00 80 1004.6
20260507072051 13 159 1.6 4.8 0.00 0.00 0.00 80 1004.5
20260507071550 13 158 0.0 0.0 0.00 0.00 0.00 80 1004.5
20260507071049 13 158 0.0 0.0 0.00 0.00 0.00 80 1004.5
20260507070549 13 158 0.0 3.2 0.00 0.00 0.00 79 1004.4
20260507070048 13 158 0.0 3.2 0.00 0.00 0.00 79 1004.6
20260507065548 13 159 1.6 3.2 0.00 0.00 0.00 79 1004.6
20260507065047 13 150 0.0 3.2 0.00 0.00 0.00 78 1004.6
20260507064547 13 151 0.0 3.2 0.00 0.00 0.00 77 1004.5
20260507064047 13 150 0.0 3.2 0.00 0.00 0.00 76 1004.6
20260507063546 13 146 0.0 0.0 0.00 0.00 0.00 76 1004.6
20260507063050 13 146 0.0 0.0 0.00 0.00 0.00 76 1004.6
20260507062546 13 146 0.0 0.0 0.00 0.00 0.00 76 1004.7
20260507062046 13 146 0.0 0.0 0.00 0.00 0.00 75 1004.7
20260507061546 13 146 0.0 0.0 0.00 0.00 0.00 75 1004.7
20260507061045 14 146 0.0 0.0 0.00 0.00 0.00 75 1004.7
20260507060545 14 146 0.0 0.0 0.00 0.00 0.00 75 1004.7
20260507060045 14 146 0.0 0.0 0.00 0.00 0.00 75 1004.8
20260507055546 14 146 0.0 0.0 0.00 0.00 0.00 75 1004.8
20260507055046 14 146 0.0 0.0 0.00 0.00 0.00 75 1004.7
20260507054546 14 146 0.0 0.0 0.00 0.00 0.00 75 1004.8
20260507054045 15 146 0.0 0.0 0.00 0.00 0.00 76 1004.8
20260507053545 15 146 0.0 0.0 0.00 0.00 0.00 76 1004.7
20260507053045 15 146 0.0 0.0 0.00 0.00 0.00 75 1004.8
20260507052544 15 146 0.0 3.2 0.00 0.00 0.00 75 1004.7
20260507052044 15 146 0.0 3.2 0.00 0.00 0.00 75 1004.7
20260507051544 15 146 0.0 0.0 0.00 0.00 0.00 75 1004.7
20260507051045 15 146 0.0 3.2 0.00 0.00 0.00 75 1004.6
20260507050544 15 146 0.0 3.2 0.00 0.00 0.00 75 1004.7
20260507050044 15 146 1.6 3.2 0.00 0.00 0.00 75 1004.7
20260507045543 15 146 0.0 3.2 0.00 0.00 0.00 75 1004.7
20260507045044 15 146 0.0 3.2 0.00 0.00 0.00 75 1004.7
20260507044544 15 146 0.0 6.4 0.00 0.00 0.00 75 1004.6
20260507044043 16 146 1.6 4.8 0.00 0.00 0.00 75 1004.6
20260507043543 16 146 0.0 3.2 0.00 0.00 0.00 74 1004.6
20260507043143 16 146 0.0 3.2 0.00 0.00 0.00 73 1004.7
20260507042542 16 146 0.0 3.2 0.00 0.00 0.00 73 1004.7
20260507042042 16 146 0.0 3.2 0.00 0.00 0.00 72 1004.7
20260507041543 16 146 0.0 6.4 0.00 0.00 0.00 72 1004.7
20260507041047 16 146 3.2 9.7 0.00 0.00 0.00 72 1004.6
20260507040543 16 146 4.8 9.7 0.00 0.00 0.00 71 1004.5
20260507040044 16 156 0.0 3.2 0.00 0.00 0.00 70 1004.5
20260507035542 16 156 0.0 3.2 0.00 0.00 0.00 69 1004.5
20260507035042 16 156 0.0 0.0 0.00 0.00 0.00 69 1004.4
20260507034546 16 156 0.0 0.0 0.00 0.00 0.00 69 1004.4
20260507034045 16 156 0.0 3.2 0.00 0.00 0.00 68 1004.4
20260507033545 17 156 0.0 3.2 0.00 0.00 0.00 68 1004.4
20260507033041 17 156 1.6 3.2 0.00 0.00 0.00 67 1004.3
20260507032541 17 156 0.0 6.4 0.00 0.00 0.00 67 1004.2
20260507032040 17 156 3.2 6.4 0.00 0.00 0.00 66 1004.2
20260507031540 17 156 1.6 4.8 0.00 0.00 0.00 66 1004.1
20260507031043 17 156 1.6 4.8 0.00 0.00 0.00 65 1004.0
20260507030542 17 156 0.0 3.2 0.00 0.00 0.00 64 1003.9
20260507030040 17 156 1.6 3.2 0.00 0.00 0.00 64 1003.9
20260507025539 17 157 0.0 8.0 0.00 0.00 0.00 63 1003.9
20260507025041 17 157 1.6 8.0 0.00 0.00 0.00 63 1003.9
20260507024540 17 81 1.6 4.8 0.00 0.00 0.00 62 1003.8
20260507024042 18 134 1.6 6.4 0.00 0.00 0.00 62 1003.8
20260507023543 18 136 1.6 4.8 0.00 0.00 0.00 61 1003.7
20260507023046 18 138 0.0 8.0 0.00 0.00 0.00 61 1003.6
20260507022539 18 138 3.2 9.7 0.00 0.00 0.00 61 1003.6
20260507022039 18 140 4.8 9.7 0.00 0.00 0.00 60 1003.5
20260507021543 18 159 1.6 9.7 0.00 0.00 0.00 60 1003.6
20260507021041 18 144 3.2 8.0 0.00 0.00 0.00 59 1003.5
20260507020538 18 157 3.2 8.0 0.00 0.00 0.00 59 1003.4
20260507020057 18 165 3.2 9.7 0.00 0.00 0.00 58 1003.4
20260507015539 19 163 4.8 12.9 0.00 0.00 0.00 58 1003.4
20260507015037 19 172 4.8 12.9 0.00 0.00 0.00 57 1003.4
20260507014537 19 190 3.2 11.3 0.00 0.00 0.00 57 1003.4
20260507014037 20 181 6.4 11.3 0.00 0.00 0.00 56 1003.3
20260507013537 20 189 6.4 11.3 0.00 0.00 0.00 56 1003.2
20260507013048 20 161 6.4 11.3 0.00 0.00 0.00 55 1003.2
20260507012636 20 171 8.0 11.3 0.00 0.00 0.00 54 1003.3
20260507012036 20 198 3.2 9.7 0.00 0.00 0.00 54 1003.4
20260507011536 21 172 6.4 9.7 0.00 0.00 0.00 53 1003.3
20260507011039 21 175 4.8 9.7 0.00 0.00 0.00 52 1003.3
20260507010536 21 178 1.6 9.7 0.00 0.00 0.00 52 1003.1
20260507010037 21 202 0.0 12.9 0.00 0.00 0.00 52 1003.0
20260507005537 21 165 4.8 12.9 0.00 0.00 0.00 52 1003.2
20260507005039 22 198 3.2 9.7 0.00 0.00 0.00 52 1003.2
20260507004542 22 172 3.2 11.3 0.00 0.00 0.00 51 1003.2
20260507004036 22 242 3.2 11.3 0.00 0.00 0.00 51 1003.1
20260507003534 22 159 1.6 11.3 0.00 0.00 0.00 51 1003.2
20260507003042 23 225 3.2 9.7 0.00 0.00 0.00 51 1003.1
20260507002533 23 196 1.6 11.3 0.00 0.00 0.00 51 1003.1
20260507002033 23 207 4.8 11.3 0.00 0.00 0.00 50 1002.9
20260507001540 23 261 1.6 12.9 0.00 0.00 0.00 51 1002.9
20260507001032 23 155 8.0 14.5 0.00 0.00 0.00 50 1002.9
20260507000532 23 128 6.4 11.3 0.00 0.00 0.00 50 1002.8
20260507000035 23 277 3.2 14.5 0.00 0.00 0.00 50 1002.7
20260506235532 23 167 11.3 14.5 0.00 0.00 0.00 49 1002.7
20260506235035 23 209 4.8 11.3 0.00 0.00 0.00 50 1002.7
20260506234536 24 158 4.8 11.3 0.00 0.00 0.00 49 1002.7
20260506234031 24 207 6.4 11.3 0.00 0.00 0.00 48 1002.7
20260506233530 24 194 6.4 12.9 0.00 0.00 0.00 48 1002.7
20260506233030 24 183 3.2 12.9 0.00 0.00 0.00 49 1002.7
20260506232528 23 124 8.0 16.1 0.00 0.00 0.00 49 1002.7
20260506232028 24 178 8.0 16.1 0.00 0.00 0.00 48 1002.9
20260506231527 24 187 4.8 11.3 0.00 0.00 0.00 48 1003.0
20260506231026 24 207 3.2 16.1 0.00 0.00 0.00 49 1003.0
20260506230526 24 148 6.4 16.1 0.00 0.00 0.00 48 1003.0
20260506230025 25 211 3.2 12.9 0.00 0.00 0.00 48 1003.0
20260506225525 25 236 3.2 16.1 0.00 0.00 0.00 49 1003.0
20260506225025 24 149 6.4 16.1 0.00 0.00 0.00 50 1003.0
20260506224525 25 165 8.0 19.3 0.00 0.00 0.00 49 1003.1
20260506224025 25 170 8.0 14.5 0.00 0.00 0.00 47 1003.1
20260506223523 25 166 6.4 16.1 0.00 0.00 0.00 46 1003.2
20260506223123 25 206 3.2 16.1 0.00 0.00 0.00 47 1003.1
20260506222522 25 163 8.0 17.7 0.00 0.00 0.00 48 1003.2
20260506222026 25 140 9.7 17.7 0.00 0.00 0.00 46 1003.2
20260506221521 25 118 4.8 17.7 0.00 0.00 0.00 46 1003.2
20260506221021 26 165 8.0 17.7 0.00 0.00 0.00 44 1003.0
20260506220521 27 183 6.4 14.5 0.00 0.00 0.00 44 1003.2
20260506220020 27 265 4.8 16.1 0.00 0.00 0.00 43 1003.2
20260506215519 27 315 11.3 16.1 0.00 0.00 0.00 44 1003.2
20260506215119 27 212 4.8 12.9 0.00 0.00 0.00 44 1003.2
20260506214531 27 167 3.2 12.9 0.00 0.00 0.00 42 1003.2
20260506214018 27 202 4.8 12.9 0.00 0.00 0.00 43 1003.3
20260506213518 27 284 3.2 14.5 0.00 0.00 0.00 43 1003.3
20260506213019 28 168 6.4 14.5 0.00 0.00 0.00 42 1003.4
20260506212515 28 339 1.6 9.7 0.00 0.00 0.00 42 1003.4
20260506212015 28 240 3.2 12.9 0.00 0.00 0.00 42 1003.5
20260506211514 28 190 1.6 14.5 0.00 0.00 0.00 41 1003.6
20260506211014 28 236 4.8 14.5 0.00 0.00 0.00 41 1003.6
20260506210515 28 137 4.8 9.7 0.00 0.00 0.00 41 1003.7
20260506210019 27 269 1.6 17.7 0.00 0.00 0.00 42 1003.7
20260506205513 27 142 3.2 17.7 0.00 0.00 0.00 40 1003.7
20260506205014 28 171 4.8 12.9 0.00 0.00 0.00 43 1003.8
20260506204513 28 167 3.2 12.9 0.00 0.00 0.00 42 1003.7
20260506204013 28 215 3.2 12.9 0.00 0.00 0.00 41 1003.8
20260506203512 28 198 4.8 12.9 0.00 0.00 0.00 42 1003.8
20260506203011 28 257 3.2 14.5 0.00 0.00 0.00 39 1003.9
20260506202511 28 267 4.8 16.1 0.00 0.00 0.00 41 1003.9
20260506202011 28 155 3.2 16.1 0.00 0.00 0.00 41 1003.9
20260506201512 28 323 9.7 19.3 0.00 0.00 0.00 40 1003.9
20260506201012 28 302 6.4 17.7 0.00 0.00 0.00 41 1003.9
20260506200509 28 286 8.0 22.5 0.00 0.00 0.00 39 1004.0
20260506200011 28 253 6.4 22.5 0.00 0.00 0.00 40 1004.0
20260506195509 29 268 9.7 16.1 0.00 0.00 0.00 38 1004.0
20260506195008 29 278 3.2 14.5 0.00 0.00 0.00 37 1004.0
20260506194507 29 355 6.4 14.5 0.00 0.00 0.00 38 1004.0
20260506194007 28 318 1.6 9.7 0.00 0.00 0.00 38 1004.2
20260506193504 28 328 0.0 12.9 0.00 0.00 0.00 37 1004.2
20260506193003 28 315 3.2 17.7 0.00 0.00 0.00 39 1004.3
20260506192501 28 240 6.4 17.7 0.00 0.00 0.00 37 1004.4
20260506192101 28 338 3.2 17.7 0.00 0.00 0.00 38 1004.4
20260506191600 28 279 8.0 17.7 0.00 0.00 0.00 38 1004.5
20260506191059 28 342 4.8 17.7 0.00 0.00 0.00 38 1004.5
20260506190557 27 338 9.7 16.1 0.00 0.00 0.00 41 1004.5
20260506190058 27 288 1.6 11.3 0.00 0.00 0.00 39 1004.5
20260506185555 27 321 0.0 12.9 0.00 0.00 0.00 39 1004.5
20260506185056 27 5 3.2 12.9 0.00 0.00 0.00 40 1004.6
20260506184554 26 317 3.2 9.7 0.00 0.00 0.00 42 1004.7
20260506184051 26 307 4.8 9.7 0.00 0.00 0.00 41 1004.7
20260506183550 25 193 1.6 14.5 0.00 0.00 0.00 43 1004.8
20260506183056 25 261 3.2 14.5 0.00 0.00 0.00 41 1005.0
20260506182548 25 273 6.4 14.5 0.00 0.00 0.00 41 1005.1
20260506182048 25 155 0.0 9.7 0.00 0.00 0.00 41 1005.1
20260506181612 25 222 0.0 11.3 0.00 0.00 0.00 42 1005.2
20260506181045 25 346 3.2 14.5 0.00 0.00 0.00 44 1005.3
20260506180544 25 355 6.4 14.5 0.00 0.00 0.00 47 1005.3
20260506180043 24 292 9.7 14.5 0.00 0.00 0.00 47 1005.4
20260506175542 23 347 4.8 14.5 0.00 0.00 0.00 47 1005.5
20260506175041 23 246 3.2 9.7 0.00 0.00 0.00 48 1005.4
20260506174541 23 317 3.2 8.0 0.00 0.00 0.00 47 1005.5
20260506174036 23 232 1.6 8.0 0.00 0.00 0.00 50 1005.5
20260506173535 22 192 1.6 8.0 0.00 0.00 0.00 49 1005.4
20260506173048 23 190 3.2 8.0 0.00 0.00 0.00 47 1005.4
20260506172532 23 289 1.6 8.0 0.00 0.00 0.00 49 1005.6
20260506172032 22 71 3.2 8.0 0.00 0.00 0.00 48 1005.6
20260506171530 22 22 4.8 9.7 0.00 0.00 0.00 53 1005.7
20260506171030 22 331 3.2 11.3 0.00 0.00 0.00 51 1005.7
20260506170530 22 338 8.0 11.3 0.00 0.00 0.00 55 1005.7
20260506170027 22 340 1.6 12.9 0.00 0.00 0.00 56 1005.7
20260506165525 21 323 6.4 12.9 0.00 0.00 0.00 56 1005.6
20260506165028 21 317 6.4 12.9 0.00 0.00 0.00 59 1005.8
20260506164531 20 291 4.8 16.1 0.00 0.00 0.00 61 1005.7
20260506164021 20 45 4.8 16.1 0.00 0.00 0.00 62 1005.8
20260506163523 20 52 3.2 9.7 0.00 0.00 0.00 63 1005.7
20260506163018 19 329 0.0 9.7 0.00 0.00 0.00 63 1005.8
20260506162516 18 355 4.8 9.7 0.00 0.00 0.00 67 1005.9
20260506162015 18 9 1.6 8.0 0.00 0.00 0.00 69 1005.8